JBU207 KPQI-KBOS

Flight info

Callsign JBU207
Flight time N/A
Altitude 34000
Route ENE OOSHN5
Aircraft A321/M-SDE3FGHIRWY/LB1

Departure

Time 2026-04-20 14:24
Airport Presque Isle International Airport (KPQI)

Arrival

Time N/A
Airport Boston Logan International Airport (KBOS)
Time Latitude Longitude Altitude Speed Heading
2026-04-20 13:18 46.69187 -68.04622 503 ft 0 kts 237°
2026-04-20 13:36 46.69181 -68.04641 503 ft 5 kts 237°
2026-04-20 13:36 46.69191 -68.04820 505 ft 6 kts 329°
2026-04-20 13:37 46.69192 -68.04820 505 ft 0 kts 335°
2026-04-20 13:37 46.69209 -68.04811 506 ft 3 kts 59°
2026-04-20 13:37 46.69212 -68.04803 506 ft 0 kts 58°
2026-04-20 13:41 46.69213 -68.04801 506 ft 2 kts 58°
2026-04-20 13:41 46.69237 -68.04573 503 ft 0 kts 108°
2026-04-20 13:43 46.69237 -68.04575 503 ft 3 kts 108°
2026-04-20 13:43 46.69244 -68.04606 504 ft 3 kts 108°
2026-04-20 13:43 46.69248 -68.04623 505 ft 0 kts 108°
2026-04-20 13:52 46.69248 -68.04624 505 ft 0 kts 108°
2026-04-20 14:14 46.69248 -68.04625 505 ft 0 kts 108°
2026-04-20 14:14 46.69249 -68.04625 505 ft 0 kts 108°
2026-04-20 14:18 46.69248 -68.04624 505 ft 1 kts 108°
2026-04-20 14:18 46.69243 -68.04623 504 ft 0 kts 161°
2026-04-20 14:19 46.69217 -68.04633 504 ft 10 kts 198°
2026-04-20 14:19 46.69117 -68.04657 501 ft 18 kts 165°
2026-04-20 14:19 46.68964 -68.04606 487 ft 27 kts 167°
2026-04-20 14:19 46.68761 -68.04529 483 ft 33 kts 167°
2026-04-20 14:20 46.68636 -68.04485 477 ft 13 kts 165°
2026-04-20 14:20 46.68628 -68.04482 475 ft 0 kts 166°
2026-04-20 14:21 46.68627 -68.04481 476 ft 2 kts 166°
2026-04-20 14:21 46.68546 -68.04453 478 ft 18 kts 166°
2026-04-20 14:21 46.68397 -68.04397 473 ft 26 kts 166°
2026-04-20 14:21 46.68298 -68.04361 470 ft 3 kts 167°
2026-04-20 14:22 46.68241 -68.04341 472 ft 13 kts 166°
2026-04-20 14:22 46.68169 -68.04341 468 ft 0 kts 220°
2026-04-20 14:22 46.68166 -68.04349 466 ft 3 kts 242°
2026-04-20 14:22 46.68153 -68.04421 467 ft 12 kts 256°
2026-04-20 14:23 46.68152 -68.04560 464 ft 14 kts 311°
2026-04-20 14:23 46.68194 -68.04588 468 ft 0 kts 347°
2026-04-20 14:23 46.68202 -68.04591 468 ft 3 kts 347°
2026-04-20 14:23 46.68545 -68.04715 477 ft 104 kts 347°
2026-04-20 14:24 46.69519 -68.05073 669 ft 173 kts 346°
2026-04-20 14:24 46.70815 -68.05530 1473 ft 206 kts 345°
2026-04-20 14:24 46.72230 -68.06033 3046 ft 216 kts 343°
2026-04-20 14:24 46.73766 -68.06610 4399 ft 239 kts 341°
2026-04-20 14:25 46.75398 -68.07284 5914 ft 243 kts 332°
2026-04-20 14:25 46.76823 -68.08577 7407 ft 242 kts 313°
2026-04-20 14:25 46.77817 -68.10543 8881 ft 241 kts 291°
2026-04-20 14:25 46.78191 -68.12923 10345 ft 244 kts 270°
2026-04-20 14:26 46.77887 -68.15421 11310 ft 267 kts 248°
2026-04-20 14:26 46.76754 -68.17733 12137 ft 296 kts 225°
2026-04-20 14:26 46.74967 -68.19399 13305 ft 311 kts 212°
2026-04-20 14:26 46.73022 -68.20836 14700 ft 314 kts 210°
2026-04-20 14:27 46.71051 -68.22252 16076 ft 317 kts 210°
2026-04-20 14:27 46.69078 -68.23703 17435 ft 320 kts 211°
2026-04-20 14:27 46.67130 -68.25176 18708 ft 323 kts 211°
2026-04-20 14:27 46.65138 -68.26709 19991 ft 322 kts 211°
2026-04-20 14:28 46.63193 -68.28216 21277 ft 322 kts 210°
2026-04-20 14:28 46.61214 -68.29756 22454 ft 323 kts 210°
2026-04-20 14:28 46.59199 -68.31322 23609 ft 325 kts 210°
2026-04-20 14:28 46.57221 -68.32857 24479 ft 328 kts 209°
2026-04-20 14:29 46.55203 -68.34421 25299 ft 331 kts 209°
2026-04-20 14:29 46.53163 -68.35999 26060 ft 333 kts 208°
2026-04-20 14:29 46.51109 -68.37586 26747 ft 336 kts 208°
2026-04-20 14:29 46.49037 -68.39184 27421 ft 338 kts 208°